Weather History for KHAI - May, 2013

Change the Weather History Date:

Wednesday, May 8, 2013

  Actual Average Record
Temperature  
Mean Temperature 64 °F -  
Max Temperature 78 °F 68 °F 86 °F (1963)
Min Temperature 49 °F 44 °F 25 °F (1976)
Degree Days  
Heating Degree Days 2    
Growing Degree Days 14 (Base 50)    
Moisture  
Dew Point 52 °F    
Average Humidity 68    
Maximum Humidity 98    
Minimum Humidity 39    
Precipitation  
Precipitation 0.00 in - - ()
Sea Level Pressure  
Sea Level Pressure 30.01 in    
Wind  
Wind Speed 2 mph (NW)    
Max Wind Speed 13 mph    
Max Gust Speed 18 mph    
Visibility 10 miles    
Events      
Averages and records for this station are not official NWS values.
T = Trace of Precipitation, MM = Missing Value Source: NWS Daily Summary

Daily Weather History Graph

Daily Weather History Graph

Search for Another Location

Airport or City:

Trip Planner

Search our weather history database for the weather conditions in past years. The results will help you decide how hot, cold, wet, or windy it might be!

Date:

Astronomy

May. 08, 2013 Rise Set
Actual Time 6:29 AM EDT 8:49 PM EDT
Civil Twilight 5:58 AM EDT 9:20 PM EDT
Nautical Twilight 5:19 AM EDT 9:58 PM EDT
Astronomical Twilight 4:37 AM EDT 10:41 PM EDT
Moon 5:38 AM EDT (5/8) 7:45 PM EDT (5/8)
Length of Visible Light 15h 22m
Length of Day
14h 19m
Waning Crescent, 2% of the Moon is Illuminated
May 8
Waning Crescent
May 9
New
May 18
First Quarter
May 25
Full
May 31
Last Quarter

Hourly Weather History & Observations

Time (EDT) Temp. Dew Point Humidity Pressure Visibility Wind Dir Wind Speed Gust Speed Precip Events Conditions
12:15 AM 56.8 °F 52.7 °F 86% 30.03 in 10.0 mi Calm Calm - N/A   Clear
12:34 AM 55.0 °F 51.1 °F 86% 30.03 in 10.0 mi Calm Calm - N/A   Clear
12:55 AM 55.4 °F 50.9 °F 85% 30.03 in 10.0 mi Calm Calm - N/A   Clear
1:15 AM 54.0 °F 50.2 °F 87% 30.02 in 10.0 mi Calm Calm - N/A   Clear
1:34 AM 53.8 °F 49.8 °F 86% 30.02 in 10.0 mi Calm Calm - N/A   Clear
1:55 AM 52.9 °F 49.6 °F 89% 30.02 in 10.0 mi Calm Calm - N/A   Clear
2:15 AM 52.9 °F 49.6 °F 89% 30.02 in 10.0 mi Calm Calm - N/A   Clear
2:34 AM 52.0 °F 49.3 °F 90% 30.02 in 10.0 mi Calm Calm - N/A   Clear
2:55 AM 52.0 °F 49.6 °F 92% 30.01 in 10.0 mi Calm Calm - N/A   Clear
3:15 AM 51.8 °F 50.2 °F 94% 30.01 in 7.0 mi Calm Calm - N/A   Clear
3:34 AM 51.6 °F 50.0 °F 94% 30.01 in 10.0 mi Calm Calm - N/A   Clear
3:55 AM 51.3 °F 50.2 °F 96% 30.01 in 10.0 mi Calm Calm - N/A   Clear
4:15 AM 51.1 °F 49.5 °F 94% 30.01 in 10.0 mi Calm Calm - N/A   Clear
4:34 AM 51.3 °F 50.0 °F 95% 30.01 in 10.0 mi Calm Calm - N/A   Clear
4:55 AM 49.5 °F 48.4 °F 96% 30.01 in 10.0 mi Calm Calm - N/A   Scattered Clouds
5:14 AM 50.5 °F 49.6 °F 97% 30.01 in 7.0 mi Calm Calm - N/A   Mostly Cloudy
5:35 AM 51.1 °F 50.5 °F 98% 30.01 in 7.0 mi Calm Calm - N/A   Overcast
5:55 AM 50.5 °F 49.5 °F 96% 30.01 in 10.0 mi Calm Calm - N/A   Overcast
6:14 AM 50.4 °F 49.5 °F 97% 30.01 in 7.0 mi Calm Calm - N/A   Scattered Clouds
6:35 AM 50.4 °F 49.5 °F 97% 30.02 in 7.0 mi Calm Calm - N/A   Mostly Cloudy
6:55 AM 49.3 °F 48.4 °F 97% 30.02 in 10.0 mi Calm Calm - N/A   Scattered Clouds
7:14 AM 50.4 °F 49.6 °F 97% 30.02 in 7.0 mi Calm Calm - N/A   Clear
7:35 AM 52.3 °F 51.4 °F 97% 30.03 in 10.0 mi Calm Calm - N/A   Clear
7:55 AM 55.2 °F 54.1 °F 96% 30.03 in 10.0 mi Calm Calm - N/A   Clear
8:14 AM 57.9 °F 54.5 °F 88% 30.03 in 10.0 mi Calm Calm - N/A   Clear
8:35 AM 60.3 °F 55.0 °F 83% 30.04 in 10.0 mi West 3.5 mph - N/A   Clear
8:55 AM 62.4 °F 54.5 °F 75% 30.04 in 10.0 mi Calm Calm - N/A   Clear
9:14 AM 64.8 °F 54.7 °F 70% 30.04 in 10.0 mi Calm Calm - N/A   Clear
9:34 AM 67.5 °F 53.2 °F 60% 30.04 in 10.0 mi Calm Calm - N/A   Clear
9:55 AM 68.4 °F 53.8 °F 60% 30.04 in 10.0 mi Calm Calm - N/A   Scattered Clouds
10:15 AM 68.4 °F 52.7 °F 57% 30.04 in 10.0 mi Calm Calm - N/A   Clear
10:34 AM 71.2 °F 52.2 °F 51% 30.04 in 10.0 mi Calm Calm - N/A   Clear
10:55 AM 71.1 °F 52.2 °F 51% 30.04 in 10.0 mi Calm Calm - N/A   Scattered Clouds
11:15 AM 72.0 °F 52.0 °F 49% 30.04 in 10.0 mi NE 3.5 mph - N/A   Mostly Cloudy
11:34 AM 72.7 °F 51.3 °F 47% 30.04 in 10.0 mi Calm Calm - N/A   Scattered Clouds
11:55 AM 73.6 °F 52.5 °F 48% 30.03 in 10.0 mi Calm Calm - N/A   Clear
12:15 PM 74.7 °F 50.2 °F 42% 30.03 in 10.0 mi Calm Calm - N/A   Clear
12:35 PM 75.4 °F 52.9 °F 45% 30.02 in 10.0 mi SSW 4.6 mph - N/A   Clear
12:54 PM 76.3 °F 52.9 °F 44% 30.02 in 10.0 mi NW 8.1 mph - N/A   Scattered Clouds
1:15 PM 76.6 °F 51.8 °F 42% 30.01 in 10.0 mi Calm Calm - N/A   Scattered Clouds
1:35 PM 76.8 °F 52.0 °F 42% 30.01 in 10.0 mi Calm Calm - N/A   Scattered Clouds
1:54 PM 77.2 °F 50.5 °F 39% 30.00 in 10.0 mi Calm Calm - N/A   Scattered Clouds
2:15 PM 77.2 °F 51.1 °F 40% 30.00 in 10.0 mi NW 5.8 mph - N/A   Scattered Clouds
2:35 PM 78.3 °F 52.3 °F 40% 29.99 in 10.0 mi Calm Calm - N/A   Scattered Clouds
2:54 PM 75.9 °F 52.7 °F 44% 29.99 in 10.0 mi West 10.4 mph 18.4 mph N/A   Mostly Cloudy
3:15 PM 76.3 °F 55.8 °F 49% 29.98 in 10.0 mi West 8.1 mph - N/A   Mostly Cloudy
3:35 PM 77.4 °F 54.7 °F 45% 29.98 in 10.0 mi West 9.2 mph - N/A   Scattered Clouds
3:55 PM 77.7 °F 54.5 °F 45% 29.98 in 10.0 mi West 9.2 mph - N/A   Scattered Clouds
4:34 PM 77.4 °F 55.6 °F 47% 29.97 in 10.0 mi WNW 11.5 mph - N/A   Scattered Clouds
4:55 PM 75.6 °F 54.3 °F 48% 29.97 in 10.0 mi West 12.7 mph 16.1 mph N/A   Clear
5:14 PM 75.7 °F 54.7 °F 48% 29.97 in 10.0 mi West 12.7 mph - N/A   Clear
5:35 PM 72.3 °F 54.3 °F 53% 29.97 in 10.0 mi West 10.4 mph - N/A   Clear
5:55 PM 75.2 °F 53.2 °F 46% 29.97 in 10.0 mi West 9.2 mph - N/A   Scattered Clouds
6:14 PM 73.8 °F 54.7 °F 51% 29.97 in 10.0 mi West 5.8 mph - N/A   Scattered Clouds
6:35 PM 73.9 °F 52.2 °F 46% 29.97 in 10.0 mi NNE 5.8 mph - N/A   Scattered Clouds
6:55 PM 72.9 °F 52.9 °F 49% 29.97 in 10.0 mi ENE 8.1 mph - N/A   Clear
7:14 PM 72.3 °F 51.8 °F 48% 29.97 in 10.0 mi NE 10.4 mph 17.3 mph N/A   Scattered Clouds
7:35 PM 70.5 °F 48.7 °F 46% 29.97 in 10.0 mi NNE 10.4 mph 17.3 mph N/A   Clear
7:55 PM 70.5 °F 51.1 °F 50% 29.97 in 10.0 mi NNE 10.4 mph - N/A   Clear
8:14 PM 69.1 °F 50.2 °F 51% 29.98 in 10.0 mi NNE 11.5 mph 18.4 mph N/A   Clear
8:35 PM 67.1 °F 51.4 °F 57% 29.98 in 10.0 mi NE 5.8 mph - N/A   Clear
8:55 PM 67.1 °F 50.0 °F 54% 29.98 in 10.0 mi NE 3.5 mph - N/A   Mostly Cloudy
9:14 PM 67.1 °F 49.8 °F 54% 29.97 in 10.0 mi Calm Calm - N/A   Overcast
9:35 PM 63.0 °F 50.4 °F 63% 29.97 in 5.0 mi WNW 4.6 mph - N/A   Haze
9:54 PM 59.4 °F 51.1 °F 74% 29.98 in 10.0 mi NW 5.8 mph - N/A   Scattered Clouds
10:15 PM 60.4 °F 50.5 °F 70% 29.99 in 10.0 mi WNW 3.5 mph - N/A   Clear
10:35 PM 61.3 °F 50.0 °F 66% 30.00 in 10.0 mi Calm Calm - N/A   Clear
10:54 PM 60.6 °F 50.4 °F 69% 30.00 in 10.0 mi Calm Calm - N/A   Clear
11:15 PM 59.7 °F 51.1 °F 73% 30.00 in 10.0 mi Calm Calm - N/A   Clear
11:35 PM 60.1 °F 50.9 °F 72% 30.00 in 10.0 mi Calm Calm - N/A   Clear
11:54 PM 58.1 °F 50.9 °F 77% 30.00 in 10.0 mi Calm Calm - N/A   Clear